Tracking 30264 objects as of 16-Feb-2025
HD Live streaming from Space Station
objects crossing your sky now

PEGASUS DEB

Track PEGASUS DEB now!
10-day predictions


NORAD ID: 39926
Int'l Code: 1994-029AFZ
Perigee: 605.1 km
Apogee: 1,041.2 km
Inclination: 81.8 °
Period: 101.2 minutes
Semi major axis: 7194 km
RCS: 0.0112 m2 (small)
Launch date: May 19, 1994
Source: United States (US)
Launch site: AIR FORCE WESTERN TEST RANGE (AFWTR)

Note: This is SATELLITE DEBRIS
Your satellite tracking list
Your tracking list is empty




NASA's NSSDC Master Catalog

Two Line Element Set (TLE):
1 39926U 94029AFZ 25046.16060278  .00001552  00000-0  42585-3 0  9990
2 39926  81.8449 354.1337 0303094 164.0096 261.8852 14.22762353553444
Source of the keplerian elements: AFSPC